Regional Weather Roundup
Issued by NWS

Home | Current Version | Previous Version | Text Only | Print | Product List | Glossary On
Versions: 1 2 3 4 5 6 7 8 9 10 11 12 13 14 15 16 17 18 19 20 21 22 23 24 25 26 27 28 29 30 31 32 33 34 35 36 37 38 39 40 41 42 43 44 45 46 47 48 49 50
000
ASUS43 KIND 221609
RWRIN

WEATHER ROUNDUP FOR INDIANA
NATIONAL WEATHER SERVICE INDIANAPOLIS IN
1100 AM EST WED NOV 22 2017

NOTE: "FAIR" INDICATES FEW OR NO CLOUDS BELOW 12,000 FEET WITH NO
SIGNIFICANT WEATHER AND/OR OBSTRUCTIONS TO VISIBILITY.

* - STATION DOES NOT REPORT WEATHER SUCH AS PRECIPITATION OR FOG.

+ - STATION NOT QUALITY CONTROLLED BY THE NATIONAL WEATHER SERVICE.
    USE DATA WITH CAUTION...ESPECIALLY DEWPOINT AND RELATIVE
    HUMIDITY OBSERVATIONS.

INZ001>003-010>013-019-020-221700-
NORTHWEST INDIANA

CITY           SKY/WX    TMP DP  RH WIND       PRES   REMARKS
GARY /AIRPORT/ MOSUNNY   32  16  51 W12       30.37S WCI  23
KNOX *+        CLOUDY    32  25  74 SW9       30.34R WCI  24
LA PORTE +     CLOUDY    33  24  68 W7        30.33R WCI  27
MICHIGAN CITY+ CLOUDY    34  23  64 W6        30.33R WCI  29
MONTICELLO +   SUNNY     31  22  69 NW7       30.35R WCI  25
RENSSELAER +   SUNNY     32  21  64 W8        30.37R WCI  25
VALPARAISO     CLOUDY    34  22  61 W13       30.34R WCI  25

$$

LMZ046-743>745-221700-
SOUTHERN LAKE MICHIGAN

STATION/POSITION TIME  TEMP    WIND        PRES    WAVE
                       AIR SEA DIR/SP/G            HT
                 (UTC) (F)     (DEG/KT/KT) (MB)    (FT)
BURNS HARBOR     1540   31     270/ 14/ 18 1027.8R
MICHIGAN CITY    1540   33     290/ 10/ 11   N/A

$$

INZ004-005-014>016-021>024-221700-
NORTH CENTRAL INDIANA

CITY           SKY/WX    TMP DP  RH WIND       PRES   REMARKS
ELKHART        CLOUDY    34  19  55 CALM      30.31S
GOSHEN         CLOUDY    32  18  56 NE5       30.31R WCI  27
LOGANSPORT +   SUNNY     32  23  69 NW6       30.34S WCI  26
PERU/GRISSOM   SUNNY     32  24  73 W7        30.33R WCI  26
ROCHESTER +    CLOUDY    36  27  69 W5        30.32S WCI  32
SOUTH BEND     CLOUDY    33  22  63 CALM      30.33R
WARSAW +       CLOUDY    32  23  69 N6        30.31S WCI  26

$$

INZ006>009-017-018-025>027-221700-
NORTHEAST INDIANA

CITY           SKY/WX    TMP DP  RH WIND       PRES   REMARKS
AUBURN +       CLOUDY    32  19  59 N7        30.31R WCI  26
FORT WAYNE     PTSUNNY   35  22  58 N8        30.32R WCI  29
HUNTINGTON +   CLOUDY    33  24  68 NW6       30.32R WCI  27
KENDALLVILLE + CLOUDY    31  20  61 N9        30.30S WCI  23

$$

INZ028-029-035-036-043>045-051>053-221700-
WEST CENTRAL INDIANA

CITY           SKY/WX    TMP DP  RH WIND       PRES   REMARKS
CRAWFORDSVL +  SUNNY     29  23  76 NW6       30.35R WCI  23
GREENCASTLE +  SUNNY     32  21  64 N3        30.35F
LAFAYETTE      SUNNY     32  24  72 NW8       30.36R WCI  25
TERRE HAUTE    SUNNY     31  19  61 VRB3      30.38R

$$

INZ030>032-037>040-046>048-054>057-064-065-221700-
CENTRAL INDIANA

CITY           SKY/WX    TMP DP  RH WIND       PRES   REMARKS
CP ATTERBURY + SUNNY     34  25  69 N5        30.35F WCI  30
COLUMBUS       SUNNY     32  23  69 NW5       30.36S WCI  27
FRANKFORT +    SUNNY     33  26  73 NW6       30.35R WCI  28
GREENWOOD *+   SUNNY     37  25  64 N3        30.34S
INDIANAPOLIS   SUNNY     34  23  64 N5        30.35R WCI  30
-EAGLE CREEK   SUNNY     33  22  63 NW7       30.33R WCI  27
KOKOMO +       MOSUNNY   33  24  69 W7        30.34R WCI  27
MARION +       SUNNY     32  25  76 NW6       30.33R WCI  26
MT COMFORT *+  SUNNY     34  27  75 N5        30.33R WCI  30
SHELBYVILLE    SUNNY     36  24  62 VRB6      30.33R WCI  31
ZIONSVILLE +   SUNNY     31  24  75 NW6       30.34R WCI  25

$$

INZ033-034-041-042-049-050-058-059-221700-
EAST CENTRAL INDIANA

CITY           SKY/WX    TMP DP  RH WIND       PRES   REMARKS
MUNCIE         SUNNY     36  23  59 NW9       30.31R WCI  29
RICHMOND +     CLOUDY    32  27  80 NW7       30.30S WCI  26

$$

INZ060-061-067>069-081>083-085>088-221700-
SOUTHWEST INDIANA

CITY           SKY/WX    TMP DP  RH WIND       PRES   REMARKS
EVANSVILLE     SUNNY     34  22  61 N8        30.39F WCI  27
HUNTINGBURG +  SUNNY     34  24  67 N7        30.37F WCI  28
WASHINGTON +   SUNNY     32  20  59 N5        30.38F WCI  28

$$

INZ062-063-066-070>080-084-089>092-221700-
SOUTH CENTRAL AND SOUTHEAST INDIANA

CITY           SKY/WX    TMP DP  RH WIND       PRES   REMARKS
BEDFORD +      SUNNY     34  23  64 N7        30.35S WCI  28
BLOOMINGTON    SUNNY     33  21  61 VRB3      30.35S
MADISON *+     SUNNY     36  25  64 NW5       30.35S WCI  32
NORTH VERNON + SUNNY     32  25  74 NW6       30.34F WCI  26
SEYMOUR +      SUNNY     36  25  64 N7        30.35F WCI  30

$$





USA.gov is the U.S. government's official web portal to all federal, state and local government web resources and services.